Elim Airport


Codes: PFEL/ELI
Name: Elim Airport
City: Elim
Country: United States
Elevation: 162 ft.
Wikipedia:

Photos at Elim Airport


   Photos courtesy of SpottingLog. You can add your own sightings and photos by signing up for a free trial today.



No photos found.

Weather at Elim Airport


Time (UTC)DescriptionTempratureWindCloud coverageVisibilityPressureHumidity
18-Apr-2024 00:00Overcast Clouds3°C11 mph, N100%10000m1017hPa81%
18-Apr-2024 03:00Overcast Clouds2°C13 mph, NE100%10000m1017hPa86%
18-Apr-2024 06:00Light Snow1°C9 mph, NE100%33m1016hPa93%
18-Apr-2024 09:00Snow0°C9 mph, NE100%39m1015hPa99%
18-Apr-2024 12:00Snow0°C7 mph, NE100%57m1016hPa99%
18-Apr-2024 15:00Light Rain1°C7 mph, E100%199m1016hPa98%
18-Apr-2024 18:00Light Rain1°C7 mph, E100%497m1017hPa97%
18-Apr-2024 21:00Light Rain1°C2 mph, NE100%550m1017hPa96%
19-Apr-2024 00:00Overcast Clouds2°C4 mph, NE100%73m1017hPa99%
19-Apr-2024 03:00Overcast Clouds1°C4 mph, NE100%132m1018hPa99%
19-Apr-2024 06:00Overcast Clouds0°C4 mph, NE100%64m1019hPa99%
19-Apr-2024 09:00Light Rain1°C4 mph, N100%1114m1019hPa99%
19-Apr-2024 12:00Overcast Clouds1°C4 mph, N100%985m1019hPa99%
19-Apr-2024 15:00Light Rain1°C7 mph, NE100%877m1019hPa99%
19-Apr-2024 18:00Light Rain2°C7 mph, NW100%495m1019hPa99%
19-Apr-2024 21:00Overcast Clouds2°C7 mph, N100%39m1019hPa100%
20-Apr-2024 00:00Overcast Clouds3°C7 mph, N100%54m1019hPa100%
20-Apr-2024 03:00Overcast Clouds2°C9 mph, N100%55m1018hPa100%
20-Apr-2024 06:00Overcast Clouds2°C11 mph, N100%10000m1018hPa96%
20-Apr-2024 09:00Overcast Clouds-0°C13 mph, N100%10000m1018hPa93%
20-Apr-2024 12:00Overcast Clouds-1°C13 mph, N92%10000m1018hPa93%
20-Apr-2024 15:00Overcast Clouds-2°C13 mph, N96%10000m1017hPa88%
20-Apr-2024 18:00Broken Clouds-2°C13 mph, NE83%10000m1017hPa81%
20-Apr-2024 21:00Overcast Clouds-0°C13 mph, NE99%10000m1016hPa89%
21-Apr-2024 00:00Overcast Clouds0°C13 mph, NE99%10000m1015hPa94%
21-Apr-2024 03:00Overcast Clouds0°C13 mph, N98%10000m1015hPa94%
21-Apr-2024 06:00Overcast Clouds-1°C13 mph, N95%10000m1014hPa93%
21-Apr-2024 09:00Overcast Clouds-2°C13 mph, N99%10000m1014hPa93%
21-Apr-2024 12:00Overcast Clouds-3°C11 mph, N100%10000m1014hPa93%
21-Apr-2024 15:00Overcast Clouds-3°C11 mph, NE100%10000m1014hPa93%
21-Apr-2024 18:00Overcast Clouds-2°C11 mph, NE100%10000m1014hPa89%
21-Apr-2024 21:00Overcast Clouds-1°C11 mph, NE99%10000m1015hPa78%
22-Apr-2024 00:00Overcast Clouds-0°C9 mph, NE99%10000m1015hPa79%
22-Apr-2024 03:00Overcast Clouds-0°C9 mph, NE100%10000m1016hPa79%
22-Apr-2024 06:00Overcast Clouds-3°C7 mph, NE100%10000m1017hPa86%
22-Apr-2024 09:00Overcast Clouds-4°C7 mph, NE100%10000m1018hPa83%
22-Apr-2024 12:00Overcast Clouds-3°C4 mph, NE100%10000m1019hPa83%
22-Apr-2024 15:00Overcast Clouds-3°C2 mph, NE100%10000m1019hPa90%
22-Apr-2024 18:00Overcast Clouds-2°C4 mph, E100%10000m1019hPa90%
22-Apr-2024 21:00Overcast Clouds-1°C2 mph, E100%10000m1019hPa94%